Tracking 22456 objects as of 7-Mar-2021
HD Live streaming from Space Station
objects crossing your sky now

SL-3 DEB

Track SL-3 DEB now!
10-day predictions


NORAD ID: 13720
Int'l Code: 1982-116C
Perigee: 806.7 km
Apogee: 888.6 km
Inclination: 81.2 °
Period: 101.7 minutes
Semi major axis: 7218 km
RCS: 0.0137 m2 (small)
Launch date: December 14, 1982
Source: Commonwealth of Independent States (former USSR) (CIS)
Launch site: PLESETSK MISSILE AND SPACE COMPLEX (PKMTR)

Note: This is SATELLITE DEBRIS
aabbcc
Your satellite tracking list
Your tracking list is empty




NASA's NSSDC Master Catalog

Two Line Element Set (TLE):
1 13720U 82116C   21065.54133433  .00000022  00000-0  43485-5 0  9994
2 13720  81.2460  79.6307 0056687  67.7037  55.3754 14.15533043973546
Source of the keplerian elements: AFSPC